Regional Weather Roundup
Issued by NWS

Home | Current Version | Previous Version | Graphics & Text | Print | Product List | Glossary On
Versions: 1 2 3 4 5 6 7 8 9 10 11 12 13 14 15 16 17 18 19 20 21 22 23 24 25 26 27 28 29 30 31 32 33 34 35 36 37 38 39 40 41 42 43 44 45 46 47 48 49 50
000
ASUS45 KSLC 121910
RWRUT

UTAH REGIONAL WEATHER ROUNDUP
NATIONAL WEATHER SERVICE SALT LAKE CITY UT
100 PM MDT SAT JUL 12 2014

UTZ001>011-023>025-122000-

NORTHERN UTAH

CITY           SKY/WX    TMP DP  RH WIND       PRES   REMARKS
HILL AFB       NOT AVBL
LOGAN          SUNNY     85  49  28 VRB3      30.22F
OGDEN          SUNNY     88  55  32 NW8       30.20F
PROVO AIRPORT  NOT AVBL
SALT LAKE CITY MOSUNNY   89  53  29 NW6       30.17F
VERNAL         CLOUDY    84  32  15 VRB6      30.24F
WENDOVER       SUNNY     90  50  25 E10       30.20F
HEBER CITY     SUNNY     84  50  30 N3        30.27F

$$

UTZ012>022-026-027-122000-

SOUTHERN UTAH

CITY           SKY/WX    TMP DP  RH WIND       PRES   REMARKS
BRYCE CANYON   SUNNY     79  40  24 VRB7G16   30.42S
CEDAR CITY     SUNNY     88  38  17 VRB5      30.26S
MILFORD        SUNNY     89  50  26 MISG      30.21F
MOAB/CYNLANDS  SUNNY     91  49  23 VRB6      30.13F
PRICE          SUNNY     89  46  22 SW10      30.25F
ST GEORGE      CLEAR     97  45  16 W3        30.06F HX  93

$$

REGIONAL REPORTS     COLORADO/ARIZONA

CITY           SKY/WX    TMP DP  RH WIND       PRES   REMARKS
CRAIG, CO      MOSUNNY   73  56  54 NW3       30.32F
GRAND JUNCTION SUNNY     89  50  26 W8        30.17F
RIFLE          MOSUNNY   85  52  32 VRB5      30.23F
MONTROSE       MOSUNNY   88  47  24 N6        30.25F
CORTEZ         SUNNY     90  51  26 S13       30.25F
PAGE, AZ       SUNNY     94  45  18 N6        30.14F HX  90
GRAND CANYON   MOSUNNY   85  41  21 NE9       30.34S
KINGMAN        SUNNY     95  42  16 NW7       30.10S HX  91
FLAGSTAFF      MOSUNNY   82  45  27 VRB5      30.36F

$$

REGIONAL REPORTS    NEVADA/IDAHO/WYOMING

CITY           SKY/WX    TMP DP  RH WIND       PRES   REMARKS
LAS VEGAS, NV  PTSUNNY   97  34  11 VRB5      29.98F HX  91
ELY            SUNNY     83  47  28 MISG      30.31F
ELKO           SUNNY     87  49  26 E5        30.24F
POCATELLO, ID  MOSUNNY   84  48  28 W13       30.24S
BURLEY         SUNNY     84  48  28 W8        30.20F
EVANSTON, WY   SUNNY     76  50  40 VRB3      30.41F
ROCK SPRINGS   SUNNY     78  47  33 VRB5      30.37F

$$



USA.gov is the U.S. government's official web portal to all federal, state and local government web resources and services.